Weather History for Khon Kaen, Thailand

Change the Weather History Date:

Wednesday, September 11, 2013

  Actual Average Record
Temperature  
Mean Temperature 82 °F -  
Max Temperature 90 °F 89 °F - ()
Min Temperature 74 °F 74 °F - ()
Cooling Degree Days 17    
Growing Degree Days 32 (Base 50)    
Moisture  
Dew Point 77 °F    
Average Humidity 89    
Maximum Humidity 100    
Minimum Humidity 54    
Precipitation  
Precipitation 0.24 in 0.26 in - ()
Sea Level Pressure  
Sea Level Pressure 29.74 in    
Wind  
Wind Speed 4 mph ()    
Max Wind Speed 20 mph    
Max Gust Speed -    
Visibility 6.0 miles    
Events Rain , Thunderstorm    
T = Trace of Precipitation, MM = Missing Value Source: Averaged Metar Reports

Daily Weather History Graph

Daily Weather History Graph

Search for Another Location

Airport:

Trip Planner

Search our weather history database for the weather conditions in past years. The results will help you decide how hot, cold, wet, or windy it might be!

Date:

Astronomy

Sep. 11, 2013 Rise Set
Actual Time 5:56 AM ICT 6:14 PM ICT
Civil Twilight 5:35 AM ICT 6:35 PM ICT
Nautical Twilight 5:09 AM ICT 7:00 PM ICT
Astronomical Twilight 4:44 AM ICT 7:26 PM ICT
Moon 10:57 AM ICT (9/11) 10:36 PM ICT (9/11)
Length of Visible Light 13h 00m
Length of Day
12h 17m
Waxing Crescent, 33% of the Moon is Illuminated
Sep 11
Waxing Crescent
Sep 13
First Quarter
Sep 19
Full
Sep 27
Last Quarter
Oct 5
New

Hourly Weather History & Observations

Time (ICT) Temp. Heat Index Dew Point Humidity Pressure Visibility Wind Dir Wind Speed Gust Speed Precip Events Conditions
12:00 AM 77.0 °F - 77.0 °F 100% 29.77 in 6.2 mi Calm Calm - N/A   Mostly Cloudy
1:00 AM 78 °F - 76 °F 91% 29.73 in 6 mi Calm Calm - -   Partly Cloudy
1:00 AM 77.0 °F - 77.0 °F 100% 29.77 in 6.2 mi Calm Calm - N/A   Mostly Cloudy
3:00 AM 77.0 °F - 77.0 °F 100% 29.74 in 6.2 mi NNW 2.3 mph - N/A   Mostly Cloudy
4:00 AM 77.0 °F - 77.0 °F 100% 29.74 in - WNW 3.5 mph - N/A   Clear
5:00 AM 75.2 °F - 75.2 °F 100% 29.74 in 6.2 mi WNW 3.5 mph - N/A   Scattered Clouds
6:00 AM 75.2 °F - 75.2 °F 100% 29.74 in 6.2 mi NW 3.5 mph - N/A   Mostly Cloudy
7:00 AM 76 °F - 74 °F 93% 29.74 in 6 mi Calm Calm - -   Overcast
7:00 AM 75.2 °F - 75.2 °F 100% 29.74 in 6.2 mi West 3.5 mph - N/A   Mostly Cloudy
8:00 AM 77.0 °F - 77.0 °F 100% 29.77 in 6.2 mi WNW 4.6 mph - N/A   Mostly Cloudy
9:00 AM 82.4 °F 90.9 °F 77.0 °F 84% 29.80 in 6.2 mi Variable 2.3 mph - N/A   Partly Cloudy
10:00 AM 86.0 °F 96.9 °F 77.0 °F 74% 29.80 in 6.2 mi NE 6.9 mph - N/A   Mostly Cloudy
11:00 AM 87.8 °F 99.7 °F 77.0 °F 70% 29.77 in 6.2 mi NE 9.2 mph - N/A   Mostly Cloudy
12:00 PM 87.8 °F 99.7 °F 77.0 °F 70% 29.74 in 6.2 mi ENE 9.2 mph - N/A   Mostly Cloudy
1:00 PM 90 °F - 76 °F 54% 29.70 in 6 mi East 3.5 mph - -   Scattered Clouds
1:00 PM 89.6 °F 102.2 °F 77.0 °F 66% 29.71 in 6.2 mi East 9.2 mph - N/A   Scattered Clouds
2:00 PM 80.6 °F 87.1 °F 77.0 °F 89% 29.71 in 5.0 mi NNE 15.0 mph - N/A Rain Rain
3:00 PM 84.2 °F 94.1 °F 77.0 °F 79% 29.68 in 6.2 mi NE 11.5 mph - N/A   Mostly Cloudy
4:00 PM 78.8 °F - 77.0 °F 94% 29.68 in 6.2 mi NE 8.1 mph - N/A   Mostly Cloudy
5:00 PM 84.2 °F 94.1 °F 77.0 °F 79% 29.65 in 6.2 mi NE 9.2 mph - N/A   Scattered Clouds
6:00 PM 82.4 °F 92.4 °F 78.8 °F 89% 29.68 in 6.2 mi NE 3.5 mph - N/A   Mostly Cloudy
7:00 PM 82 °F - 75 °F 75% 29.69 in 6 mi Calm Calm - -   Scattered Clouds
7:00 PM 80.6 °F 88.1 °F 78.8 °F 94% 29.71 in 6.2 mi SE 2.3 mph - N/A   Mostly Cloudy
7:30 PM 80.6 °F 88.1 °F 78.8 °F 94% 29.71 in 6.2 mi SSW 2.3 mph - N/A Thunderstorm Thunderstorm
8:00 PM 80.6 °F 88.1 °F 78.8 °F 94% 29.74 in 3.1 mi ENE 19.6 mph - N/A Rain , Thunderstorm Thunderstorms and Rain
9:00 PM 75.2 °F - 75.2 °F 100% 29.77 in 6.2 mi ENE 10.4 mph - N/A   Mostly Cloudy
10:00 PM 75.2 °F - 75.2 °F 100% 29.80 in 6.2 mi East 3.5 mph - N/A   Mostly Cloudy
11:00 PM 77.0 °F - 77.0 °F 100% 29.80 in 6.2 mi NE 4.6 mph - N/A   Mostly Cloudy